Location: Canazei
(46.4667°N, 11.7667°E)
Time: 17:55:41
(UTC+00:00)

CZ-4C R/B - Pass Details

Date: 21 April 2021
Orbit: 612 x 1390 km, 63.4° (Epoch: 11 May)

Event Time Altitude Azimuth Distance (km) Brightness Sun altitude
Rises 01:02:32 0° 320° (NW) 3,789 5.8 -26.6°
Reaches altitude 10° 01:04:59 10° 322° (NW) 2,938 5.2 -26.4°
Maximum altitude 01:12:11 81° 49° (NE) 1,254 3.0 -25.7°
Drops below altitude 10° 01:20:34 10° 138° (SE) 3,395 5.2 -24.9°
Sets 01:23:35 0° 139° (SE) 4,407 5.8 -24.6°
